Showing default

OTP-2, 63235

Orbit data source: Space-Track

OTP-2, 63235 is a payload satellite owned by Rogue Space (US) in SSO that was launched on Sat, 15 Mar 2025 UTC via an FALCON 9 launch vehicle from the Air Force Western Test Range (AFWTR). Payload-class satellites include a variety of spacecraft equipped with specific instruments for various scientific and technological missions. These include communications satellites like Starlink; space stations such as the ISS; scientific satellites like the Hubble; Earth observation satellites from companies like Planet Labs, Umbra, and HawkEye 360; GPS; miniature CubeSats for education and research; and military/defense satellites.

Loading next visibility...
Identifier
63235, 2025-052AB
Orbit
SSO
Country
Flag of USUS
Related business
Manufacturer
Rogue Space
Mission
Operational Commercial Technology
Bus & Motor
CUBESAT 8U, Unknown motor
Mass
11 kg wet, 11 kg dry
Launch date (UTC)
2025-03-15 (7 months ago)
Launch vehicle
FALCON 9
Launch site
Air Force Western Test Range (AFWTR)
Object type
Payload
Rocket body
Debris
Shape & HBR
Box + 2 Pan, 0.2 m
Radar Cross Section
0.055 m², Small (<0.1 m²)

Expand to show TLE details & history
Last TLE update: 11 hours ago

TLE from 11 hours ago
0 OTP-2
1 63235U 25052AB  25298.27386818  .00004923  00000-0  23117-3 0  9997
2 63235  97.4085 189.4491 0004806 270.7034  89.3650 15.20077263 34136
Epoch: 2025-10-25T06:34Z
TLE epoch observation values (Epoch: 2025-10-25T06:34:22.210Z)
Latitude
-0.00009°
Longitude
56.94979°
Altitude
508.663 km
Speed
7.61 km/s
True Right ascension
12h 37m 47s
True Declination
0° 00' 00"
Sunlit
Object was in daylight at epoch
Visualization orbit readout
Latitude
Unknown
Longitude
Unknown
Altitude
Unknown
Speed
Unknown
Apparent Right ascension
Unknown
Apparent Declination
Unknown
Sunlit
N/A
Visualization observer readout
Local Sidereal Time
12:39:37
Azimuth
Unknown
Elevation
Unknown
Doppler factor
Unknown
Orbital elements
Apogee altitude
505.88 km
Perigee altitude
499.266 km
Semi-major axis
6,880.71 km
Eccentricity
0.00048
Inclination
97.4085°
RAAN
189.4491°
Arg. of periapsis
270.7034°
True anomaly
89.42007°
Mean anomaly
89.365°
Eccentric anomaly
89.39253°
Mean motion
3.80271 °/min
Orbital period
94.67 mins
BSTAR
0.00023117
Loading maneuver chart data...
Computing Atmospheric mass density...
Loading historical data...
Loading historical data...
Loading historical data...
Loading historical data...
Loading historical data...
Loading historical data...
Loading historical data...

Documentation

Showing up to 5 results
|